Seatac, Washington, United States
Lat: 47.45N, Lon: 122.32W
Wx Zone: WAZ508
Local Info
Past Weather Observations for Today

NOTE: This archive is for the closest National Weather Service station to Seatac. Information may differ from the station used for current weather conditions.

Click here for Long-term Archive

Time Weather Temperature Dewpoint Humidity Pressure Winds Precip Visibility
21:53
Mostly Cloudy
63°F / 17°C 50°F / 10°C 64% 30.01 in
(1016 mb)
S 12.7 mph
(S 20 kph)
- 10SM
20:53
Mostly Cloudy
63°F / 17°C 52°F / 11°C 68% 30.01 in
(1016 mb)
SSE 10.4 mph
(SSE 17 kph)
- 10SM
19:53
Mostly Cloudy
63°F / 17°C 52°F / 11°C 68% 30.01 in
(1016 mb)
SW 10.4 mph
(SW 17 kph)
- 10SM
18:53
Mostly Cloudy
63°F / 17°C 52°F / 11°C 68% 30.01 in
(1016 mb)
SW 11.5 mph
(SW 19 kph)
- 10SM
17:53
Mostly Cloudy
64°F / 18°C 52°F / 11°C 64% 29.98 in
(1015 mb)
SW 10.4 mph
(SW 17 kph)
- 10SM
16:53
Mostly Cloudy
66°F / 19°C 54°F / 12°C 64% 29.98 in
(1015 mb)
SSW 10.4 mph
(SSW 17 kph)
- 10SM
15:53
Mostly Cloudy
66°F / 19°C 52°F / 11°C 60% 29.98 in
(1015 mb)
SW 11.5 mph
(SW 19 kph)
- 10SM
14:53
Mostly Cloudy
66°F / 19°C 52°F / 11°C 60% 29.98 in
(1015 mb)
SW 15 mph
(SW 24 kph)
- 10SM
13:53
Mostly Cloudy
66°F / 19°C 52°F / 11°C 60% 29.98 in
(1015 mb)
SW 13.8 mph
(SW 22 kph)
- 10SM
12:53
Mostly Cloudy
66°F / 19°C 54°F / 12°C 64% 29.98 in
(1015 mb)
SW 13.8 mph
(SW 22 kph)
0.00 in
(0.00 mm)
10SM
11:53
Overcast
Light Rain
63°F / 17°C 54°F / 12°C 73% 29.95 in
(1014 mb)
SW 12.7 mph
(SW 20 kph)
0.01 in
(0.25 mm)
10SM
10:53
Overcast
Light Rain
63°F / 17°C 55°F / 13°C 77% 29.95 in
(1014 mb)
S 9.2 mph
(S 15 kph)
0.01 in
(0.25 mm)
10SM
09:53
Overcast
63°F / 17°C 55°F / 13°C 77% 29.92 in
(1013 mb)
S 17.3 mph
(S 28 kph)
- 10SM
08:53
Mostly Cloudy
61°F / 16°C 57°F / 14°C 88% 29.92 in
(1013 mb)
S 10.4 mph
(S 17 kph)
- 10SM
07:53
Overcast
55°F / 13°C 54°F / 12°C 94% 29.89 in
(1012 mb)
SSE 5.8 mph
(SSE 9 kph)
0.03 in
(0.76 mm)
10SM
06:53
Mostly Cloudy
55°F / 13°C 54°F / 12°C 94% 29.89 in
(1012 mb)
SSE 10.4 mph
(SSE 17 kph)
0.01 in
(0.25 mm)
10SM
06:42
Mostly Cloudy
55°F / 13°C 54°F / 12°C 94% 29.86 in
(1011 mb)
SSE 10.4 mph
(SSE 17 kph)
0.01 in
(0.25 mm)
10SM
05:53
Overcast
Rain
55°F / 13°C 54°F / 12°C 94% 29.83 in
(1010 mb)
SSE 9.2 mph
(SSE 15 kph)
0.14 in
(3.56 mm)
6SM
05:13
Overcast
Rain
55°F / 13°C 54°F / 12°C 94% 29.83 in
(1010 mb)
S 11.5 mph
(S 19 kph)
0.06 in
(1.52 mm)
6SM
04:53
Overcast
Heavy Rain
57°F / 14°C 54°F / 12°C 88% 29.83 in
(1010 mb)
S 10.4 mph
(S 17 kph)
0.15 in
(3.81 mm)
3SM
04:48
Overcast
Heavy Rain
57°F / 14°C 55°F / 13°C 94% 29.83 in
(1010 mb)
S 9.2 mph
(S 15 kph)
0.13 in
(3.30 mm)
4SM
03:53
Overcast
Rain
57°F / 14°C 55°F / 13°C 94% 29.8 in
(1009 mb)
S 5.8 mph
(S 9 kph)
0.04 in
(1.02 mm)
5SM
02:53
Mostly Cloudy
Light Rain
57°F / 14°C 55°F / 13°C 94% 29.8 in
(1009 mb)
SSE 4.6 mph
(SSE 7 kph)
0.01 in
(0.25 mm)
9SM
01:53
Mostly Cloudy
55°F / 13°C 54°F / 12°C 94% 29.8 in
(1009 mb)
S 6.9 mph
(S 11 kph)
- 10SM
00:53
Partly Cloudy
55°F / 13°C 54°F / 12°C 94% 29.77 in
(1008 mb)
S 6.9 mph
(S 11 kph)
0.01 in
(0.25 mm)
10SM
Time Weather Temperature Dewpoint Humidity Pressure Winds Precip Visibility


Weather for websites

WeatherForYou.com, LLC is not responsible for any damages or problems caused by this service. Current weather conditions are obtained from the closest station including government and personal stations which may have varying degrees of accuracy. Weather forecasts are derived from the NOAA NDFD. Like all things, this site belongs to Jesus Christ... He just trusts us to maintain it. If you have any questions or comments email webmaster@weatherforyou.com

Copyright © 2015, WeatherForYou.com LLC. All rights reserved.